Ellensburg, WA

6:19 PM PDT on October 18, 2017 (GMT -0700)
Bowers

Weather History for KELN - March, 2013

Change the Weather History Date:

Thursday, March 7, 2013

  Actual Average (KYKM) Record (KYKM)
Temperature  
Mean Temperature 43 °F -  
Max Temperature 54 °F 54 °F 71 °F (2005)
Min Temperature 30 °F 30 °F 12 °F (1951)
Degree Days  
Heating Degree Days 22    
Moisture  
Dew Point 30 °F    
Average Humidity 70    
Maximum Humidity 85    
Minimum Humidity 40    
Precipitation  
Precipitation 0.00 in - - ()
Sea Level Pressure  
Sea Level Pressure 29.99 in    
Wind  
Wind Speed 2 mph (South)    
Max Wind Speed 8 mph    
Max Gust Speed -    
Visibility 8 miles    
Events      
Averages and records for this station are not official NWS values.
T = Trace of Precipitation, MM = Missing Value Source: NWS Daily Summary

Daily Weather History Graph

Daily Weather History Graph

Search for Another Location

Airport or City:

Trip Planner

Search our weather history database for the weather conditions in past years. The results will help you decide how hot, cold, wet, or windy it might be!

Date:

Astronomy

Mar. 07, 2013 Rise Set
Actual Time 6:29 AM PST 5:56 PM PST
Civil Twilight 5:59 AM PST 6:27 PM PST
Nautical Twilight 5:24 AM PST 7:02 PM PST
Astronomical Twilight 4:48 AM PST 7:38 PM PST
Moon 3:47 AM PST (3/7) 1:37 PM PST (3/7)
Length of Visible Light 12h 27m
Length of Day
11h 26m
Waning Crescent, 19% of the Moon is Illuminated
Mar 7
Waning Crescent
Mar 11
New
Mar 19
First Quarter
Mar 27
Full
Apr 2
Last Quarter

Hourly Weather History & Observations

Time (PST) Temp. Windchill Dew Point Humidity Pressure Visibility Wind Dir Wind Speed Gust Speed Precip Events Conditions
12:53 AM 35.1 °F 32.2 °F 30.9 °F 85% 29.88 in 5.0 mi SW 3.5 mph - N/A   Overcast
1:53 AM 35.1 °F 32.2 °F 30.9 °F 85% 29.90 in 8.0 mi SW 3.5 mph - N/A   Overcast
2:53 AM 35.1 °F - 30.9 °F 85% 29.91 in 3.0 mi Calm Calm - N/A   Overcast
3:05 AM 35.6 °F - 30.2 °F 81% 29.88 in 2.5 mi Calm Calm - N/A   Overcast
3:15 AM 35.6 °F - 30.2 °F 81% 29.88 in 3.0 mi Calm Calm - N/A   Overcast
3:53 AM 35.1 °F - 30.9 °F 85% 29.93 in 3.0 mi Calm Calm - N/A   Overcast
4:53 AM 33.1 °F - 28.9 °F 85% 29.95 in 4.0 mi Calm Calm - N/A   Overcast
5:53 AM 32.0 °F 28.7 °F 28.0 °F 85% 29.97 in 5.0 mi NE 3.5 mph - N/A   Overcast
6:53 AM 32.0 °F - 28.0 °F 85% 29.99 in 6.0 mi Calm Calm - N/A   Overcast
7:53 AM 35.1 °F 31.0 °F 30.0 °F 82% 30.01 in 9.0 mi East 4.6 mph - N/A   Overcast
8:53 AM 39.0 °F 34.8 °F 33.1 °F 79% 30.03 in 10.0 mi ENE 5.8 mph - N/A   Overcast
9:53 AM 43.0 °F - 35.1 °F 74% 30.04 in 10.0 mi Calm Calm - N/A   Overcast
10:53 AM 46.0 °F - 34.0 °F 63% 30.04 in 10.0 mi Calm Calm - N/A   Clear
11:53 AM 48.9 °F - 34.0 °F 56% 30.03 in 10.0 mi Calm Calm - N/A   Clear
12:53 PM 51.1 °F - 33.1 °F 50% 30.01 in 10.0 mi Calm Calm - N/A   Clear
1:53 PM 53.1 °F - 28.9 °F 40% 30.00 in 10.0 mi Calm Calm - N/A   Clear
2:53 PM 54.0 °F - 30.9 °F 41% 30.00 in 10.0 mi South 8.1 mph - N/A   Mostly Cloudy
3:53 PM 52.0 °F - 28.0 °F 40% 30.00 in 10.0 mi SE 3.5 mph - N/A   Clear
4:53 PM 51.1 °F - 28.0 °F 41% 30.00 in 10.0 mi SW 6.9 mph - N/A   Clear
5:53 PM 45.0 °F - 27.0 °F 49% 30.02 in 10.0 mi Calm Calm - N/A   Clear
6:53 PM 39.9 °F 35.1 °F 30.0 °F 68% 30.04 in 10.0 mi NW 6.9 mph - N/A   Clear
7:53 PM 37.9 °F 35.5 °F 28.9 °F 70% 30.05 in 10.0 mi WNW 3.5 mph - N/A   Mostly Cloudy
8:53 PM 39.0 °F 35.7 °F 30.0 °F 70% 30.06 in 10.0 mi WNW 4.6 mph - N/A   Mostly Cloudy
9:53 PM 36.0 °F 33.3 °F 28.9 °F 76% 30.06 in 10.0 mi East 3.5 mph - N/A   Overcast
10:53 PM 35.1 °F - 28.0 °F 76% 30.06 in 10.0 mi Calm Calm - N/A   Clear
11:53 PM 30.9 °F - 26.1 °F 82% 30.07 in 10.0 mi Calm Calm - N/A   Clear